TimeEDT,TemperatureF,Dew PointF,Humidity,Sea Level PressureIn,VisibilityMPH,Wind Direction,Wind SpeedMPH,Gust SpeedMPH,PrecipitationIn,Events,Conditions,WindDirDegrees,DateUTC
12:04 AM,55.4,51.8,88,29.36,5.0,ESE,18.4,31.1,0.02,Rain,Light Rain,110,2011-10-20 04:04:00
12:13 AM,55.4,51.8,88,29.34,10.0,ESE,18.4,27.6,0.02,Rain,Light Rain,110,2011-10-20 04:13:00
12:54 AM,57.0,52.0,83,29.32,10.0,ESE,20.7,-,0.02,,Overcast,120,2011-10-20 04:54:00
1:02 AM,57.2,51.8,82,29.33,10.0,ESE,21.9,26.5,N/A,,Overcast,120,2011-10-20 05:02:00
1:11 AM,57.2,51.8,82,29.32,10.0,ESE,17.3,-,N/A,,Overcast,120,2011-10-20 05:11:00
1:54 AM,57.0,53.1,87,29.29,5.0,ESE,19.6,-,0.03,Rain,Light Rain,120,2011-10-20 05:54:00
2:54 AM,57.0,53.1,87,29.27,7.0,ESE,18.4,25.3,0.10,Rain,Light Rain,120,2011-10-20 06:54:00
3:45 AM,57.2,53.6,88,29.25,10.0,ESE,19.6,-,0.01,,Overcast,110,2011-10-20 07:45:00
3:54 AM,57.9,53.1,84,29.23,10.0,ESE,15.0,-,0.01,,Overcast,110,2011-10-20 07:54:00
4:14 AM,57.2,53.6,88,29.22,10.0,ESE,16.1,-,N/A,,Mostly Cloudy,120,2011-10-20 08:14:00
4:54 AM,57.9,53.1,84,29.19,10.0,SE,15.0,27.6,N/A,,Mostly Cloudy,130,2011-10-20 08:54:00
5:52 AM,59.0,53.6,82,29.19,10.0,ESE,18.4,24.2,N/A,,Mostly Cloudy,120,2011-10-20 09:52:00
5:54 AM,59.0,54.0,83,29.18,10.0,ESE,18.4,24.2,N/A,,Mostly Cloudy,120,2011-10-20 09:54:00
6:26 AM,59.0,53.6,82,29.18,10.0,East,16.1,21.9,0.00,Rain,Light Rain,100,2011-10-20 10:26:00
6:54 AM,59.0,54.0,83,29.19,10.0,ESE,13.8,-,0.00,Rain,Light Rain,120,2011-10-20 10:54:00
7:02 AM,59.0,55.4,88,29.22,3.0,Variable,5.8,23.0,0.02,Rain,Heavy Rain,0,2011-10-20 11:02:00
7:08 AM,59.0,55.4,88,29.22,4.0,SSE,9.2,23.0,0.10,Rain,Rain,150,2011-10-20 11:08:00
7:40 AM,57.2,55.4,94,29.22,10.0,East,3.5,-,0.12,,Overcast,100,2011-10-20 11:40:00
7:54 AM,59.0,55.9,90,29.24,10.0,West,3.5,-,0.12,,Mostly Cloudy,280,2011-10-20 11:54:00
8:02 AM,60.8,55.4,82,29.24,10.0,West,4.6,-,N/A,,Mostly Cloudy,280,2011-10-20 12:02:00
8:54 AM,60.1,53.1,78,29.27,10.0,WSW,6.9,-,N/A,,Mostly Cloudy,240,2011-10-20 12:54:00
9:54 AM,61.0,51.1,70,29.29,10.0,West,13.8,-,N/A,,Mostly Cloudy,260,2011-10-20 13:54:00
10:54 AM,60.1,51.1,72,29.29,10.0,SW,8.1,17.3,N/A,,Mostly Cloudy,230,2011-10-20 14:54:00
11:54 AM,60.1,50.0,69,29.30,7.0,WSW,17.3,25.3,0.00,Rain,Light Rain,240,2011-10-20 15:54:00
12:54 PM,62.1,46.9,58,29.31,10.0,WSW,18.4,24.2,0.00,,Mostly Cloudy,240,2011-10-20 16:54:00
1:54 PM,60.1,43.0,53,29.32,10.0,WSW,15.0,24.2,N/A,,Mostly Cloudy,250,2011-10-20 17:54:00
2:54 PM,57.9,41.0,53,29.35,10.0,WSW,18.4,27.6,N/A,,Mostly Cloudy,250,2011-10-20 18:54:00
3:54 PM,57.9,39.9,51,29.36,10.0,WSW,13.8,23.0,N/A,,Mostly Cloudy,240,2011-10-20 19:54:00
4:54 PM,55.9,39.9,55,29.39,10.0,SW,21.9,32.2,0.00,Rain,Light Rain,220,2011-10-20 20:54:00
5:54 PM,55.0,39.9,57,29.43,10.0,WSW,15.0,20.7,0.00,,Overcast,240,2011-10-20 21:54:00
6:54 PM,54.0,39.0,57,29.46,10.0,SW,12.7,-,N/A,,Overcast,230,2011-10-20 22:54:00
7:54 PM,51.1,39.0,63,29.49,10.0,SW,8.1,-,N/A,,Mostly Cloudy,220,2011-10-20 23:54:00
8:54 PM,52.0,37.9,59,29.50,10.0,WSW,12.7,20.7,N/A,,Overcast,240,2011-10-21 00:54:00
9:54 PM,53.1,37.0,55,29.52,10.0,SW,15.0,24.2,N/A,,Overcast,230,2011-10-21 01:54:00
10:54 PM,52.0,37.0,57,29.53,10.0,SW,16.1,27.6,N/A,,Overcast,230,2011-10-21 02:54:00
11:54 PM,51.1,39.0,63,29.55,10.0,WSW,16.1,26.5,0.00,Rain,Light Rain,240,2011-10-21 03:54:00